Theta_e
303 305 302 305 312 311 309 305 305 308 309 308 307 308 312 316 318 317 317 316 317 318 321 320 319 319 317 315 312 311 309 309 308 307 306 306 305 305 307 306 308 309 311 311
304 302 310 314 314 312 310 305 304 307 310 309 308 307 311 314 315 316 314 315 316 316 317 317 318 317 316 314 312 310 309 309 307 307 307 307 306 306 306 306 307 309 311 312
302 307 315 313 310 308 305 304 304 305 309 310 305 302 307 313 314 315 316 317 317 315 316 315 315 316 315 313 311 309 309 309 308 308 308 307 307 305 304 305 306 308 311 312
306 311 311 309 309 309 302 310 310 307 303 296 306 292 304 309 307 308 309 311 312 317 317 315 314 315 313 311 312 310 309 308 308 307 306 304 303 301 303 304 306 307 310 310
305 306 307 306 309 310 305 312 306 307 302 299 300 292 299 305 304 307 309 311 312 313 316 316 315 314 311 313 310 310 308 307 308 308 307 306 305 304 306 306 305 305 307 308
307 313 311 309 312 311 311 305 303 300 298 290 295 293 294 300 305 309 311 311 313 314 315 315 315 311 313 312 311 309 307 305 306 307 308 306 305 305 304 304 304 305 305 307
308 309 313 314 306 308 302 295 288 287 289 291 300 294 295 304 308 308 309 311 312 311 313 314 309 307 307 307 307 307 305 304 306 306 307 307 307 306 304 304 304 304 304 305
299 297 309 312 307 303 300 294 289 284 286 289 298 291 295 305 309 309 310 309 310 313 314 310 306 305 305 307 305 306 304 304 305 306 311 310 311 309 306 305 305 305 304 306
299 300 311 311 310 305 301 297 298 293 293 289 294 300 305 310 307 309 308 309 309 309 310 307 306 308 307 304 304 304 304 304 304 308 307 308 311 307 305 306 305 306 307 309
304 297 307 309 309 307 303 305 294 292 284 284 291 292 294 298 303 307 309 307 307 311 309 307 305 304 304 304 304 305 305 304 305 306 309 309 308 309 308 307 307 309 306 307
302 298 302 306 301 298 298 296 297 295 292 286 288 291 299 296 298 303 304 308 308 308 306 305 305 306 304 304 304 304 304 304 304 308 309 308 308 309 308 307 307 308 305 305
303 299 296 300 306 307 301 297 297 290 289 291 289 291 304 298 298 299 301 307 306 306 304 305 303 304 303 303 304 304 305 304 306 306 310 308 307 308 307 307 307 308 307 305
305 298 293 296 299 303 298 297 298 296 292 289 286 291 300 300 299 299 298 301 303 304 302 302 302 301 303 302 303 304 305 305 308 310 309 308 307 307 306 306 309 308 311 311
310 298 296 292 294 298 295 295 297 294 289 289 290 293 296 297 297 298 298 300 303 305 305 302 301 300 302 304 304 304 305 306 307 309 310 309 311 306 306 307 311 311 311 311
303 295 298 298 301 300 296 295 296 293 292 288 291 293 295 298 297 298 303 304 306 305 302 301 300 300 302 303 304 304 305 306 307 310 309 309 312 309 310 309 312 313 309 311
305 296 298 298 301 299 296 298 299 299 297 296 296 294 300 305 303 303 304 305 305 305 303 304 303 302 303 304 304 305 305 306 308 310 310 312 312 312 311 306 308 311 309 309
303 300 299 293 302 300 291 297 299 299 301 299 293 298 303 304 304 304 305 305 307 308 309 305 304 304 303 304 305 304 305 307 308 308 311 312 309 311 311 307 306 308 306 307
303 300 298 293 295 284 300 305 304 301 302 303 304 305 306 306 307 307 307 308 308 309 310 310 307 306 304 304 304 304 306 306 308 309 311 312 310 310 311 310 306 305 305 306
307 301 298 292 289 295 299 303 300 298 297 305 303 303 304 307 305 304 309 309 308 308 310 312 312 312 311 307 305 304 305 306 309 308 310 312 312 306 307 310 307 305 304 304
308 305 300 296 292 289 298 305 306 306 292 303 301 300 301 300 291 295 307 310 307 308 310 311 312 313 310 312 312 306 306 305 305 310 311 313 313 311 308 309 307 309 307 307
297 298 295 293 294 297 302 305 306 289 290 302 300 302 300 295 299 305 306 304 306 306 307 309 309 310 311 313 308 309 308 307 308 311 312 312 312 310 308 306 309 311 310 312
296 294 292 294 290 290 303 301 294 297 299 298 297 298 298 299 300 300 302 301 304 305 305 307 306 306 308 310 311 311 308 311 310 311 312 311 312 312 311 308 309 308 311 311
295 297 294 295 293 301 304 300 303 298 296 295 296 298 300 297 297 299 299 300 303 304 303 304 304 305 307 309 308 308 310 313 312 311 308 311 312 312 311 310 310 306 304 307
302 304 295 297 303 302 299 303 300 299 297 298 298 298 298 296 298 298 300 299 300 301 302 304 303 304 305 308 311 311 310 312 313 312 311 311 311 308 311 311 309 305 304 302
301 303 298 298 303 304 303 300 299 300 301 302 302 302 301 299 298 299 299 300 301 300 302 302 302 303 305 307 307 309 311 313 312 311 311 311 309 306 310 312 311 308 306 305
300 299 295 293 299 298 297 301 303 301 301 302 302 302 302 302 300 301 301 300 301 301 302 302 302 303 304 307 306 307 309 310 309 308 308 309 310 305 309 311 311 305 301 301
Wind_Speed
4 8 4 8 7 6 6 4 6 8 2 11 8 7 5 1 7 13 5 15 7 2 4 10 7 7 6 5 5 5 4 1 2 2 3 3 3 4 3 3 5 4 4 5
6 4 1 9 10 8 5 3 1 11 14 13 8 6 6 11 9 17 17 14 10 6 6 7 7 6 6 6 5 5 3 0 1 1 2 2 2 3 3 3 5 5 5 5
5 2 4 6 4 7 5 3 2 5 14 19 7 10 4 8 10 8 10 11 7 7 6 7 7 5 6 7 5 6 5 4 2 3 2 3 2 3 4 4 4 5 6 6
1 3 4 4 4 2 3 4 5 19 8 4 3 5 6 5 7 7 7 4 5 7 10 8 6 6 7 5 6 7 6 4 3 2 2 2 1 2 2 3 4 5 5 6
3 3 4 2 4 4 7 3 6 19 11 6 7 7 3 4 3 9 10 6 5 6 5 8 6 7 3 8 7 7 5 2 2 2 2 2 3 2 3 3 6 5 5 5
4 1 3 2 5 3 3 3 13 6 6 6 7 3 4 2 6 4 6 7 6 9 7 7 6 7 5 6 7 4 2 3 3 2 3 2 4 5 3 4 4 4 4 4
3 4 2 3 8 6 12 7 4 5 7 2 7 4 5 5 3 5 7 8 8 5 8 8 6 7 7 7 4 4 4 2 4 3 3 5 6 4 3 4 3 5 4 3
3 8 6 6 1 2 4 4 6 1 4 2 6 3 5 2 6 6 6 3 8 7 3 3 8 6 7 8 6 4 2 1 5 5 5 4 5 3 3 3 3 3 2 4
4 5 5 13 16 5 6 4 1 8 5 5 2 3 7 5 3 4 4 7 8 3 7 9 8 4 7 6 5 6 3 4 6 5 5 5 3 4 3 5 3 2 4 3
2 4 9 5 8 9 5 4 6 5 4 4 2 2 4 7 4 5 6 6 6 8 6 6 6 7 5 6 6 5 4 5 4 5 2 2 4 3 3 3 4 3 4 3
3 5 6 9 7 5 6 6 6 6 4 5 4 2 5 3 0 4 2 6 9 7 8 7 6 6 7 4 4 4 5 3 3 3 2 2 4 3 3 2 3 2 3 5
3 6 5 11 5 4 2 4 4 6 1 3 5 2 3 0 5 6 2 6 5 9 7 7 8 7 7 6 6 6 4 5 4 3 1 2 4 4 4 3 4 4 4 3
3 3 4 5 7 9 8 11 5 5 4 3 5 0 4 4 4 3 2 4 5 5 7 5 4 6 7 6 6 5 6 5 5 3 2 3 4 4 5 6 5 4 5 4
10 5 6 5 5 2 6 12 13 8 7 4 4 3 7 7 2 2 6 4 3 3 3 5 6 7 7 7 7 6 6 4 4 5 4 4 5 5 6 5 5 3 4 4
8 5 8 5 4 10 8 11 14 12 5 7 5 7 6 9 4 3 2 5 6 7 2 2 5 7 7 7 6 6 6 5 4 6 4 5 6 5 4 4 5 4 2 4
5 3 4 5 10 14 10 11 13 11 8 7 5 7 6 8 6 13 13 13 12 8 3 4 7 8 8 8 7 6 7 5 3 4 5 6 6 5 6 4 4 3 3 3
4 5 3 1 2 3 11 8 12 11 11 3 7 3 5 14 12 7 9 9 11 11 16 9 4 8 8 8 8 8 7 4 4 5 5 5 5 4 5 5 4 5 4 2
5 4 3 2 4 5 6 12 17 16 7 5 6 8 7 2 3 3 6 5 8 10 10 12 7 6 8 6 7 6 7 6 5 5 4 5 6 5 4 2 2 3 3 4
4 5 4 4 3 3 7 9 7 1 9 9 9 9 9 9 6 5 10 6 6 6 7 5 5 1 4 7 8 7 7 6 5 6 5 5 5 5 4 4 3 3 3 3
7 6 6 3 5 3 2 12 16 5 4 6 6 6 6 7 5 5 8 8 8 8 7 7 7 6 6 9 9 6 8 5 7 6 6 4 4 5 6 4 5 3 4 5
4 4 5 3 4 3 7 11 4 8 5 5 5 4 4 3 3 5 7 7 6 5 8 8 8 8 10 8 5 6 9 9 9 6 5 6 5 6 7 5 3 3 5 5
3 2 3 3 3 3 5 3 7 5 3 2 3 1 1 2 5 5 6 7 8 8 7 8 7 8 10 10 5 8 8 9 6 6 6 7 6 5 4 5 4 4 4 5
4 2 5 2 4 4 2 6 4 5 3 3 2 3 4 3 3 5 5 7 7 8 8 6 6 8 8 10 7 9 10 7 5 7 7 6 7 5 5 5 5 3 4 4
3 2 5 4 0 5 4 3 5 5 3 3 3 3 4 4 5 4 5 6 6 6 6 6 7 7 7 8 10 9 10 7 6 7 9 6 5 6 5 3 4 4 4 4
2 3 4 3 2 2 2 2 4 3 4 1 1 2 3 2 2 2 5 5 6 6 5 6 6 6 6 6 7 6 8 6 4 6 7 8 5 6 5 5 5 5 6 6
1 3 4 4 5 5 5 3 5 4 5 5 4 6 6 4 5 5 5 5 4 7 4 6 7 7 7 6 6 6 6 5 5 4 5 6 6 5 4 3 4 8 11 11
Wind_Direction
7 77 86 177 163 264 184 213 220 75 6 61 109 167 208 305 263 220 198 99 166 228 150 154 152 133 138 135 150 134 114 332 5 343 332 339 331 326 330 340 334 338 332 330
16 160 182 97 143 150 198 182 331 87 111 86 112 99 32 44 44 96 106 164 174 171 178 163 165 162 158 174 187 133 126 249 318 314 289 259 269 285 279 312 313 318 319 320
168 37 159 144 138 131 225 172 148 143 95 129 95 57 30 77 96 117 156 158 175 169 171 196 191 170 170 199 163 157 177 208 231 263 291 328 357 349 346 342 317 319 309 305
87 275 107 61 64 81 330 249 251 129 115 173 195 141 28 109 122 151 188 197 217 195 183 214 212 171 195 196 180 163 204 211 240 314 312 8 28 314 275 270 281 300 307 301
251 13 354 347 176 204 238 221 93 108 109 101 7 81 212 183 189 201 232 226 238 227 232 210 181 195 166 153 181 191 196 287 311 314 309 351 341 274 279 295 320 325 314 313
182 346 54 260 250 182 259 42 99 94 97 57 303 117 306 4 292 200 217 238 239 220 200 162 219 119 153 170 191 135 171 278 291 341 331 265 255 280 315 309 311 317 314 310
343 342 299 5 4 24 49 51 1 3 35 86 324 44 249 303 327 265 217 223 221 170 161 180 160 154 175 190 167 172 212 268 293 3 317 250 250 264 261 278 276 310 311 312
67 6 4 335 17 237 47 140 150 212 145 150 349 15 281 275 320 25 72 151 140 176 195 201 168 179 167 183 185 178 225 312 301 300 279 253 243 252 261 273 283 291 260 274
54 49 35 66 47 42 326 18 58 102 56 87 309 345 303 285 269 116 140 149 184 183 188 173 183 156 155 169 172 196 189 241 267 297 307 306 306 269 277 294 273 277 280 297
308 126 4 67 33 9 58 284 22 14 114 116 144 320 279 329 301 197 214 217 204 209 192 199 181 159 169 177 196 198 222 239 274 290 281 315 321 302 276 289 331 261 295 311
35 85 344 48 22 15 352 15 51 107 96 135 150 287 235 127 72 110 239 207 207 208 195 187 181 189 188 186 200 212 245 263 297 290 290 322 318 312 294 322 306 267 306 311
13 101 83 107 42 19 353 345 109 110 120 92 124 274 23 236 124 116 176 213 211 203 180 183 185 185 182 193 191 218 240 263 273 258 313 272 290 287 307 282 266 261 257 275
352 59 101 301 1 348 35 30 41 89 76 11 101 147 1 78 58 356 356 315 201 186 207 221 198 201 196 193 198 225 252 260 265 264 250 257 280 293 275 247 235 256 285 323
76 27 121 140 185 216 49 50 52 88 76 75 108 119 357 346 140 29 42 14 96 168 229 223 204 214 202 202 198 216 248 264 271 275 273 276 267 267 277 255 247 248 272 282
96 85 108 121 100 69 82 70 62 80 145 90 79 79 339 325 40 17 51 50 45 61 55 165 201 208 208 208 217 236 236 239 248 274 278 290 264 245 269 271 249 267 309 293
20 150 70 51 80 75 62 80 61 51 50 70 86 68 344 351 5 38 27 18 11 344 263 183 190 201 210 215 220 227 242 254 266 286 288 294 282 264 258 253 273 242 288 281
92 129 86 269 15 60 33 356 89 77 38 18 43 317 2 16 1 30 27 15 1 1 332 290 212 202 207 212 207 219 227 240 241 273 275 290 289 271 302 241 222 240 262 265
114 86 89 156 39 55 125 98 100 82 49 32 41 13 28 270 285 32 16 16 352 327 347 331 334 351 303 250 225 232 233 231 254 275 275 274 276 265 275 268 158 234 246 256
90 113 85 108 95 125 4 5 323 354 50 16 23 11 11 356 33 11 354 354 326 329 304 312 311 322 295 259 285 249 254 247 253 253 266 272 290 251 260 269 251 226 213 244
46 55 107 101 111 239 327 326 323 131 71 355 25 34 40 35 40 292 332 345 337 339 318 312 297 287 286 282 249 253 262 252 262 263 254 258 270 245 260 267 238 234 214 233
359 16 85 107 112 95 314 321 337 63 288 331 10 83 71 64 212 270 304 332 331 312 315 325 326 320 307 289 247 221 250 245 249 258 264 254 245 249 249 247 248 225 244 248
87 73 23 58 81 185 309 27 81 209 301 346 38 119 179 219 288 300 302 315 312 312 316 314 319 318 314 320 297 276 259 261 244 242 249 261 245 240 248 227 240 259 264 257
33 143 144 122 177 198 332 121 142 147 170 285 241 241 221 285 269 296 309 328 315 308 309 313 318 315 331 330 289 282 271 264 286 276 253 241 257 247 239 237 258 255 255 267
54 119 106 86 43 147 170 154 160 178 201 325 313 293 356 314 319 322 325 321 318 311 310 312 326 329 336 351 12 343 303 306 296 296 294 267 256 255 241 258 235 236 250 248
235 57 128 93 165 48 262 198 188 157 131 130 332 231 238 215 291 262 288 291 297 296 306 319 324 315 318 320 330 335 348 352 354 31 346 314 274 257 252 234 260 236 230 197
355 169 133 196 186 162 249 180 182 184 229 234 242 283 289 229 244 257 285 262 275 281 297 317 316 317 318 316 323 327 331 343 350 48 352 328 331 315 282 259 297 249 259 254